Humidity-temperature Sensor

Selected Measurement Type: Relative Humidity

 
Relative Humidity [%]     6 entries per hour
Showing data from 5/31/2018 (00:00:00 Z) to 5/30/2018 (00:01:00 Z)
Previous Next [ Day | 3-Days | 7-Days ]
First Last
Prev [ Day | 3-Days | 7-Days ] Next
First Last

Start Time:     :
End Time:     :     
Time (in GMT) :00 :50 :40 :30 :20 :10
Previous Next [ Day | 3-Days | 7-Days ]
First Last
Prev [ Day | 3-Days | 7-Days ] Next
First Last


123 => good data
MM => data is determined as missing
-- => data not received/configured
Back to Top Back to Top
5/31/2018 00:00 to 23:10 83.38 79.75 80.41 79.94 79.52 81.97
5/30/2018 23:00 to 22:10 83.27 81.64 87.73 89.61 81.78 81.37
5/30/2018 22:00 to 21:10 82.30 81.93 80.75 80.93 80.83 79.46
5/30/2018 21:00 to 20:10 81.76 80.44 78.01 80.73 78.05 75.77
5/30/2018 20:00 to 19:10 76.44 80.89 82.20 80.08 79.96 78.96
5/30/2018 19:00 to 18:10 78.61 82.71 84.91 83.71 82.28 82.63
5/30/2018 18:00 to 17:10 82.53 81.45 81.55 83.13 84.56 86.28
5/30/2018 17:00 to 16:10 83.75 82.55 83.19 82.07 82.38 82.94
5/30/2018 16:00 to 15:10 81.12 83.42 85.41 84.25 83.13 83.27
5/30/2018 15:00 to 14:10 82.40 84.33 85.84 85.78 85.97 86.24
5/30/2018 14:00 to 13:10 85.78 87.67 87.25 86.61 86.94 86.26
5/30/2018 13:00 to 12:10 87.77 90.03 89.94 90.21 88.72 86.24
5/30/2018 12:00 to 11:10 88.10 85.88 85.84 85.59 85.41 85.20
5/30/2018 11:00 to 10:10 84.62 85.18 85.32 86.55 85.53 84.33
5/30/2018 10:00 to 9:10 83.42 83.52 83.87 84.52 85.41 86.28
5/30/2018 09:00 to 8:10 84.66 83.29 81.91 81.95 83.83 86.55
5/30/2018 08:00 to 7:10 85.88 86.38 86.55 86.63 86.96 86.88
5/30/2018 07:00 to 6:10 86.48 86.50 86.73 87.00 86.86 86.71
5/30/2018 06:00 to 5:10 86.44 86.36 86.40 86.80 87.06 87.23
5/30/2018 05:00 to 4:10 87.81 88.95 89.26 89.86 89.72 90.19
5/30/2018 04:00 to 3:10 90.40 89.94 88.56 88.70 88.14 86.09
5/30/2018 03:00 to 2:10 86.30 85.39 84.89 85.01 83.96 83.87
5/30/2018 02:00 to 1:10 83.29 83.65 83.29 84.00 84.45 84.10
5/30/2018 01:00 to 0:10 82.67 81.64 81.49 82.30 80.87 79.21